Location: L�beck
(53.8752°N, 10.6787°E)
Time: 15:15:53
(UTC+01:00)

ISS - Pass Details

Date: 12 January 2018
Orbit: 402 x 407 km, 51.6° (Epoch: 21 January)

Event Time Altitude Azimuth Distance (km) Brightness Sun altitude
Exits shadow 06:23:42 22° 211° (SSW) 950 -2.2 -17.6°
Maximum altitude 06:23:45 22° 210° (SSW) 949 -2.1 -17.6°
Drops below altitude 10° 06:26:21 10° 157° (SSE) 1,464 -0.5 -17.2°
Sets 06:28:43 0° 142° (SE) 2,322 0.9 -16.9°
